This is the latest recevied weather packets stored in our database for station/object KD1KE. If no packets are shown the sender has not sent any weather packets the latest 1 day(s).
| Time | Temp. | Humidity | Pressure | Rain* | Wind** | Luminosity | Snow |
|---|---|---|---|---|---|---|---|
| 1778081967 | 16.67° C | 80% | 1008.1 hPa | 0 mm | - | - | - |
| 1778081758 | 16.67° C | 80% | 1008.1 hPa | 0 mm | - | - | - |
| 1778081216 | 16.11° C | 80% | 1008 hPa | 0 mm | - | - | - |
| 1778080135 | 16.11° C | 81% | 1007.4 hPa | 0 mm | - | - | - |
| 1778079596 | 16.11° C | 80% | 1007.4 hPa | 0 mm | - | - | - |
| 1778078010 | 15.56° C | 81% | 1008.3 hPa | 0 mm | - | - | - |
| 1778077349 | 15.56° C | 80% | 1008.4 hPa | 0 mm | - | - | - |
| 1778076898 | 16.11° C | 80% | 1008.5 hPa | 0 mm | - | - | - |
| 1778076359 | 15.56° C | 81% | 1008.6 hPa | 0 mm | - | - | - |
| 1778076030 | 15.56° C | 80% | 1008.5 hPa | 0 mm | - | - | - |
| 1778075371 | 16.11° C | 80% | 1008.3 hPa | 0 mm | - | - | - |
| 1778074201 | 16.11° C | 80% | 1008.1 hPa | 0 mm | - | - | - |
| 1778070096 | 13.33° C | 83% | 1008.6 hPa | 0 mm | - | - | - |
| 1778069886 | 13.33° C | 83% | 1008.8 hPa | 0 mm | - | - | - |
| 1778067458 | 12.78° C | 84% | 1009.2 hPa | 0 mm | - | - | - |
| 1778066648 | 12.22° C | 84% | 1009.1 hPa | 0 mm | - | - | - |
| 1778065480 | 12.22° C | 85% | 1008.9 hPa | 0 mm | - | - | - |
| 1778064528 | 11.67° C | 86% | 1009 hPa | 0 mm | - | - | - |
| 1778062873 | 11.11° C | 86% | 1009.1 hPa | 0 mm | - | - | - |
| 1778062842 | 11.11° C | 86% | 1009.1 hPa | 0 mm | - | - | - |
| 1778062184 | 11.11° C | 86% | 1009 hPa | 0 mm | - | - | - |
| 1778060205 | 11.11° C | 86% | 1008.6 hPa | 0 mm | - | - | - |
| 1778059546 | 11.11° C | 86% | 1008.3 hPa | 0 mm | - | - | - |
| 1778058887 | 11.67° C | 86% | 1008.5 hPa | 0 mm | - | - | - |
| 1778058228 | 11.67° C | 85% | 1008.7 hPa | 0 mm | - | - | - |
* Rain latest hour (hover to see other rain measurements)
** Current wind speed in m/s (hover to see current wind gust speed)